This demonstration page uses our WeatherBlox Daily Observations layout. Learn more.

Left ArrowRight Arrow

44.8408, -93.29828

Hourly Observations for April 29, 2022

Temp ( °F °C ) Dew Point ( °F °C ) Humidity (%) Winds ( mph kmh ) Pressure ( in mb ) Visibility ( mi km ) Precip ( " mm )
12:17 am 00:17 Cloudy 48 8.9 37 2.8 66 66 ESE 14 22 30.01 1016 10 16 0.00 0.00
12:53 am 00:53 Cloudy 47 8.3 37 2.8 69 69 ESE 12 19 30.01 1016 10 16 0.00 0.00
1:53 am 01:53 Cloudy 46 7.8 37 2.8 71 71 ESE 10 17 30.00 1016 10 16 0.00 0.00
2:53 am 02:53 Cloudy 46 7.8 37 2.8 71 71 ESE 13 20 29.98 1015 10 16 0.00 0.00
3:53 am 03:53 Cloudy 46 7.8 37 2.8 71 71 ESE 13 20 29.96 1015 10 16 0.00 0.00
4:53 am 04:53 Cloudy 46 7.8 36 2.2 68 68 E 14 22 29.96 1014 10 16 0.00 0.00
5:53 am 05:53 Cloudy 46 7.8 37 2.8 71 71 E 13 20 29.95 1014 10 16 0.00 0.00
6:53 am 06:53 Cloudy 46 7.8 37 2.8 71 71 ESE 16 26 29.94 1014 10 16 0.00 0.00
7:28 am 07:28 Cloudy 46 7.8 37 2.8 71 71 ESE 17 28 29.94 1014 10 16 0.00 0.00
7:53 am 07:53 Cloudy 47 8.3 38 3.3 71 71 E 15 24 29.93 1014 10 16 0.00 0.00
8:40 am 08:40 Cloudy 48 8.9 38 3.3 68 68 E 14 22 29.94 1014 10 16 0.00 0.00
8:53 am 08:53 Cloudy 48 8.9 38 3.3 68 68 ESE 17 28 29.93 1014 10 16 0.00 0.00
9:25 am 09:25 Cloudy 49 9.4 38 3.3 66 66 ESE 16 26 29.93 1014 10 16 0.00 0.00
9:53 am 09:53 Mostly Cloudy 51 10.6 39 3.9 64 64 ESE 20 31 29.92 1013 10 16 0.00 0.00
10:53 am 10:53 Cloudy 54 12.2 41 5 62 62 ESE 22 35 29.91 1013 10 16 0.00 0.00
11:13 am 11:13 Cloudy 55 12.8 41 5 59 59 ESE 20 31 29.90 1013 10 16 0.00 0.00
11:23 am 11:23 Cloudy 55 12.8 41 5 59 59 ESE 14 22 29.90 1013 10 16 0.00 0.00
11:53 am 11:53 Cloudy 55 12.8 42 5.6 62 62 ESE 16 26 29.90 1013 10 16 0.00 0.00
12:53 pm 12:53 Cloudy 56 13.3 42 5.6 60 60 ESE 14 22 29.88 1012 10 16 0.00 0.00
1:53 pm 13:53 Cloudy 58 14.4 42 5.6 56 56 ESE 16 26 29.88 1012 10 16 0.00 0.00
2:53 pm 14:53 Cloudy 57 13.9 42 5.6 58 58 ESE 15 24 29.87 1012 9 14 0.00 0.00
3:53 pm 15:53 Cloudy 59 15 43 6.1 56 56 ESE 15 24 29.84 1011 10 16 0.01 0.25
4:53 pm 16:53 Cloudy 59 15 42 5.6 54 54 SE 14 22 29.83 1010 10 16 0.00 0.00
5:53 pm 17:53 Cloudy 60 15.6 42 5.6 52 52 SE 18 30 29.81 1010 10 16 0.00 0.00
6:53 pm 18:53 Cloudy with Light Rain 56 13.3 47 8.3 72 72 SE 17 28 29.82 1010 6 10 0.00 0.00
7:53 pm 19:53 Cloudy with Light Rain 54 12.2 48 8.9 80 80 ESE 17 28 29.82 1010 7 11 0.02 0.51
8:53 pm 20:53 Cloudy with Light Rain 53 11.7 48 8.9 83 83 ESE 24 39 29.81 1009 5 8 0.03 0.76
9:53 pm 21:53 Cloudy 53 11.7 48 8.9 83 83 ESE 18 30 29.80 1009 10 16 0.00 0.00
10:53 pm 22:53 Cloudy 53 11.7 47 8.3 80 80 ESE 22 35 29.79 1009 10 16 0.00 0.00
11:53 pm 23:53 Cloudy 54 12.2 46 7.8 75 75 ESE 21 33 29.78 1008 10 16 0.00 0.00

Powered by AerisWeather